TimeCST,TemperatureF,Dew PointF,Humidity,Sea Level PressureIn,VisibilityMPH,Wind Direction,Wind SpeedMPH,Gust SpeedMPH,PrecipitationIn,Events,Conditions,WindDirDegrees,DateUTC
12:35 AM,39.7,33.8,79,30.16,10.0,ENE,10.4,-,N/A,,Overcast,60,2011-12-20 06:35:00
12:55 AM,39.6,34.0,80,30.16,10.0,ENE,8.1,-,N/A,,Overcast,60,2011-12-20 06:55:00
1:15 AM,39.4,34.0,81,30.15,10.0,East,9.2,-,N/A,,Overcast,80,2011-12-20 07:15:00
1:35 AM,39.4,34.3,82,30.15,10.0,ENE,6.9,-,N/A,,Overcast,60,2011-12-20 07:35:00
1:55 AM,39.2,34.3,83,30.15,10.0,NE,9.2,-,N/A,,Overcast,50,2011-12-20 07:55:00
2:15 AM,39.2,33.8,81,30.15,10.0,ENE,8.1,-,N/A,,Overcast,60,2011-12-20 08:15:00
2:35 AM,39.2,34.7,84,30.15,10.0,ENE,6.9,-,N/A,,Overcast,60,2011-12-20 08:35:00
2:55 AM,39.2,34.7,84,30.15,10.0,ENE,5.8,-,N/A,,Overcast,70,2011-12-20 08:55:00
3:15 AM,39.2,34.9,84,30.15,10.0,ENE,6.9,-,N/A,,Overcast,70,2011-12-20 09:15:00
3:35 AM,39.4,34.7,83,30.14,10.0,ENE,8.1,-,N/A,,Overcast,60,2011-12-20 09:35:00
3:55 AM,39.4,34.5,83,30.13,10.0,ENE,9.2,-,N/A,,Overcast,70,2011-12-20 09:55:00
4:15 AM,39.4,34.0,81,30.14,10.0,ENE,8.1,-,N/A,,Overcast,60,2011-12-20 10:15:00
4:35 AM,39.2,33.4,80,30.13,10.0,ENE,8.1,-,N/A,,Overcast,60,2011-12-20 10:35:00
4:55 AM,39.2,33.3,79,30.14,10.0,ENE,5.8,-,N/A,,Overcast,60,2011-12-20 10:55:00
5:15 AM,39.2,33.4,80,30.14,10.0,ENE,5.8,-,N/A,,Overcast,60,2011-12-20 11:15:00
5:35 AM,39.2,33.8,81,30.14,10.0,ENE,6.9,-,N/A,,Overcast,60,2011-12-20 11:35:00
5:55 AM,39.0,33.3,80,30.13,10.0,ENE,6.9,-,N/A,,Overcast,60,2011-12-20 11:55:00
6:15 AM,38.7,33.1,80,30.11,10.0,East,9.2,-,N/A,,Overcast,80,2011-12-20 12:15:00
6:55 AM,38.5,32.9,80,30.10,10.0,East,8.1,-,N/A,,Overcast,80,2011-12-20 12:55:00
7:35 AM,38.5,32.9,80,30.09,10.0,East,6.9,-,N/A,,Overcast,90,2011-12-20 13:35:00
7:55 AM,39.2,31.6,74,30.08,10.0,ESE,10.4,-,N/A,,Overcast,110,2011-12-20 13:55:00
8:15 AM,39.2,31.1,73,30.09,10.0,East,6.9,-,N/A,,Mostly Cloudy,100,2011-12-20 14:15:00
8:35 AM,39.2,30.0,70,30.08,10.0,East,9.2,-,N/A,,Mostly Cloudy,100,2011-12-20 14:35:00
8:55 AM,39.2,29.5,68,30.07,10.0,ESE,11.5,16.1,N/A,,Overcast,110,2011-12-20 14:55:00
9:15 AM,39.4,29.1,67,30.07,10.0,East,11.5,-,N/A,,Overcast,100,2011-12-20 15:15:00
9:35 AM,39.6,29.3,67,30.07,10.0,East,9.2,-,N/A,,Overcast,90,2011-12-20 15:35:00
9:55 AM,41.0,30.2,65,30.08,10.0,East,9.2,-,N/A,,Overcast,80,2011-12-20 15:55:00
10:15 AM,39.7,31.3,72,30.06,10.0,ENE,9.2,-,N/A,,Overcast,70,2011-12-20 16:15:00
10:35 AM,39.2,30.2,70,30.06,10.0,East,9.2,-,N/A,,Overcast,80,2011-12-20 16:35:00
10:55 AM,39.4,31.1,72,30.05,10.0,East,9.2,-,N/A,,Overcast,80,2011-12-20 16:55:00
11:15 AM,39.6,31.1,72,30.03,10.0,East,10.4,-,N/A,,Overcast,80,2011-12-20 17:15:00
11:35 AM,39.6,31.8,74,30.01,10.0,East,11.5,-,N/A,,Overcast,90,2011-12-20 17:35:00
11:55 AM,39.7,31.8,73,29.98,10.0,East,12.7,-,N/A,,Mostly Cloudy,90,2011-12-20 17:55:00
12:35 PM,40.1,32.0,73,29.97,10.0,East,9.2,-,N/A,,Overcast,90,2011-12-20 18:35:00
12:55 PM,40.3,32.4,73,29.96,10.0,East,8.1,-,N/A,,Overcast,100,2011-12-20 18:55:00
1:15 PM,40.3,33.4,77,29.94,10.0,East,9.2,-,N/A,Rain,Rain,80,2011-12-20 19:15:00
1:55 PM,39.7,34.9,83,29.92,5.0,ENE,9.2,-,N/A,,Light Drizzle,70,2011-12-20 19:55:00
2:35 PM,39.4,35.2,85,29.92,3.0,ENE,10.4,-,0.01,Rain,Rain,60,2011-12-20 20:35:00
2:55 PM,39.2,36.0,88,29.90,4.0,ENE,10.4,-,0.02,Rain,Light Rain,70,2011-12-20 20:55:00
3:15 PM,39.2,36.3,89,29.89,4.0,East,11.5,-,0.01,Rain,Light Rain,80,2011-12-20 21:15:00
3:35 PM,39.2,36.5,90,29.89,4.0,ENE,11.5,-,0.01,,Overcast,60,2011-12-20 21:35:00
3:55 PM,39.2,36.5,90,29.88,10.0,ENE,10.4,-,0.01,,Overcast,60,2011-12-20 21:55:00
4:15 PM,39.2,36.1,89,29.89,10.0,ENE,9.2,-,N/A,,Overcast,60,2011-12-20 22:15:00
4:35 PM,39.2,36.1,89,29.88,5.0,East,9.2,-,N/A,,Overcast,80,2011-12-20 22:35:00
4:55 PM,39.2,36.5,90,29.88,3.0,East,10.4,-,N/A,Rain,Light Rain,80,2011-12-20 22:55:00
5:15 PM,39.2,36.5,90,29.87,3.0,ENE,9.2,-,N/A,,Light Drizzle,70,2011-12-20 23:15:00
5:35 PM,39.2,36.7,91,29.87,4.0,East,9.2,-,N/A,,Overcast,80,2011-12-20 23:35:00
5:55 PM,39.2,36.9,91,29.86,2.0,East,9.2,-,N/A,,Overcast,90,2011-12-20 23:55:00
6:15 PM,39.2,37.0,92,29.87,2.5,ENE,8.1,-,N/A,,Overcast,70,2011-12-21 00:15:00
6:55 PM,39.2,37.4,93,29.87,1.8,East,5.8,-,N/A,,Overcast,80,2011-12-21 00:55:00
7:35 PM,39.2,37.4,93,29.85,2.0,East,6.9,-,N/A,,Overcast,90,2011-12-21 01:35:00
7:55 PM,39.2,37.4,93,29.84,2.0,East,4.6,-,N/A,,Overcast,100,2011-12-21 01:55:00
8:15 PM,39.4,37.8,94,29.82,2.0,ESE,6.9,-,N/A,,Overcast,110,2011-12-21 02:15:00
8:35 PM,39.7,38.3,95,29.81,3.0,East,4.6,-,N/A,,Overcast,100,2011-12-21 02:35:00
8:55 PM,41.0,39.2,93,29.80,3.0,East,6.9,-,N/A,,Overcast,80,2011-12-21 02:55:00
9:15 PM,40.1,38.7,95,29.79,2.5,East,6.9,-,N/A,,Overcast,80,2011-12-21 03:15:00
9:35 PM,40.3,38.8,95,29.79,2.0,East,4.6,-,N/A,,Overcast,100,2011-12-21 03:35:00
9:55 PM,40.3,38.8,95,29.78,2.0,East,3.5,-,N/A,,Overcast,100,2011-12-21 03:55:00
10:15 PM,40.3,38.8,95,29.78,2.0,NE,3.5,-,N/A,,Overcast,50,2011-12-21 04:15:00
10:35 PM,40.1,38.7,95,29.77,1.5,ENE,4.6,-,N/A,,Overcast,60,2011-12-21 04:35:00
10:55 PM,40.1,38.7,95,29.76,1.2,ENE,5.8,-,N/A,,Overcast,60,2011-12-21 04:55:00
11:15 PM,40.1,38.7,95,29.75,1.2,ENE,4.6,-,N/A,,Overcast,60,2011-12-21 05:15:00
11:35 PM,40.1,38.5,94,29.74,1.0,NE,5.8,-,N/A,,Overcast,40,2011-12-21 05:35:00
11:55 PM,39.4,38.1,95,29.73,0.8,NE,6.9,-,N/A,,Overcast,40,2011-12-21 05:55:00